Change the Weather History Date:

Thursday, March 27, 2014

  Actual Average (KEKA) Record (KEKA)
Temperature  
Mean Temperature 50 °F 50 °F  
Max Temperature 57 °F 57 °F 78 °F (1930)
Min Temperature 44 °F 43 °F 32 °F (1898)
Degree Days  
Heating Degree Days 14 15  
Month to date heating degree days 413  
Since 1 July heating degree days 3335  
Cooling Degree Days 0 0  
Month to date cooling degree days 0  
Year to date cooling degree days 0  
Moisture  
Dew Point 46 °F    
Average Humidity 84    
Maximum Humidity 100    
Minimum Humidity 67    
Precipitation  
Precipitation 0.06 in 0.15 in 2.46 in (1934)
Month to date precipitation 4.71  
Year to date precipitation 16.84  
Since 1 July precipitation 33.89  
Snow  
Snow 0.00 in 0.00 in T in (2007)
Month to date snowfall 0.0  
Since 1 July snowfall 0.2  
Snow Depth -    
Sea Level Pressure  
Sea Level Pressure 29.99 in    
Wind  
Wind Speed 10 mph (ESE)    
Max Wind Speed 16 mph    
Max Gust Speed -    
Visibility 10 miles    
Events      
T = Trace of Precipitation, MM = Missing Value Source: NWS Daily Summary

Daily Weather History Graph

Daily Weather History Graph

Search for Another Location

Airport or City:

Trip Planner

Search our weather history database for the weather conditions in past years. The results will help you decide how hot, cold, wet, or windy it might be!

Date:

Astronomy

Mar. 27, 2014 Rise Set
Actual Time 7:08 AM PDT 7:36 PM PDT
Civil Twilight 6:40 AM PDT 8:03 PM PDT
Nautical Twilight 6:08 AM PDT 8:35 PM PDT
Astronomical Twilight 5:35 AM PDT 9:08 PM PDT
Moon 5:04 AM PDT (3/27) 4:29 PM PDT (3/27)
Length of Visible Light 13h 22m
Length of Day
12h 27m
Waning Crescent, 12% of the Moon is Illuminated
Mar 27
Waning Crescent
Mar 30
New
Apr 7
First Quarter
Apr 15
Full
Apr 22
Last Quarter

Hourly Weather History & Observations

Time (PDT) Temp. Windchill Dew Point Humidity Pressure Visibility Wind Dir Wind Speed Gust Speed Precip Events Conditions
12:15 AM 46.4 °F 41.9 °F 44.6 °F 93% 29.90 in 10.0 mi ESE 9.2 mph - N/A   Scattered Clouds
12:35 AM 46.4 °F 41.9 °F 44.6 °F 93% 29.90 in 10.0 mi ESE 9.2 mph - N/A   Partly Cloudy
12:55 AM 46.4 °F 42.9 °F 44.6 °F 93% 29.90 in 10.0 mi SE 6.9 mph - N/A   Partly Cloudy
1:15 AM 46.4 °F 43.5 °F 44.6 °F 93% 29.90 in 10.0 mi SE 5.8 mph - N/A   Mostly Cloudy
1:35 AM 46.4 °F 42.9 °F 46.4 °F 100% 29.91 in 10.0 mi East 6.9 mph - N/A   Overcast
1:55 AM 46.4 °F 42.4 °F 44.6 °F 93% 29.91 in 10.0 mi ESE 8.1 mph - N/A   Mostly Cloudy
2:15 AM 46.4 °F 41.5 °F 44.6 °F 93% 29.91 in 10.0 mi ESE 10.4 mph - N/A   Overcast
2:35 AM 46.4 °F 43.5 °F 44.6 °F 93% 29.91 in 10.0 mi East 5.8 mph - N/A   Overcast
2:55 AM 46.4 °F 42.9 °F 44.6 °F 93% 29.92 in 10.0 mi ESE 6.9 mph - N/A   Overcast
3:15 AM 44.6 °F 40.2 °F 44.6 °F 100% 29.92 in 10.0 mi East 8.1 mph - N/A   Mostly Cloudy
3:35 AM 44.6 °F 41.4 °F 44.6 °F 100% 29.92 in 10.0 mi ESE 5.8 mph - N/A   Partly Cloudy
3:55 AM 44.6 °F 40.2 °F 44.6 °F 100% 29.92 in 10.0 mi ESE 8.1 mph - N/A   Mostly Cloudy
4:15 AM 46.4 °F 41.5 °F 44.6 °F 93% 29.92 in 10.0 mi ESE 10.4 mph - N/A   Overcast
4:35 AM 46.4 °F 42.4 °F 44.6 °F 93% 29.93 in 10.0 mi ESE 8.1 mph - N/A   Overcast
4:55 AM 44.6 °F 40.7 °F 44.6 °F 100% 29.94 in 10.0 mi SE 6.9 mph - N/A   Overcast
5:15 AM 44.6 °F 38.8 °F 44.6 °F 100% 29.96 in 5.0 mi West 11.5 mph - 0.01 in   Mostly Cloudy
5:35 AM 46.4 °F 41.9 °F 44.6 °F 93% 29.95 in 4.0 mi ESE 9.2 mph - 0.05 in   Overcast
5:55 AM 46.4 °F 42.4 °F 44.6 °F 93% 29.95 in 10.0 mi SE 8.1 mph - 0.06 in   Mostly Cloudy
6:15 AM 44.6 °F 39.2 °F 44.6 °F 100% 29.94 in 10.0 mi ESE 10.4 mph - N/A   Mostly Cloudy
6:35 AM 44.6 °F 40.2 °F 44.6 °F 100% 29.95 in 10.0 mi SE 8.1 mph - N/A   Overcast
6:55 AM 44.6 °F 39.2 °F 44.6 °F 100% 29.95 in 10.0 mi ESE 10.4 mph - N/A   Scattered Clouds
7:15 AM 44.6 °F 39.2 °F 44.6 °F 100% 29.96 in 10.0 mi ESE 10.4 mph - N/A   Mostly Cloudy
7:35 AM 46.4 °F 41.1 °F 44.6 °F 93% 29.97 in 10.0 mi ESE 11.5 mph - N/A   Mostly Cloudy
7:55 AM 46.4 °F 41.5 °F 44.6 °F 93% 29.97 in 10.0 mi ESE 10.4 mph - N/A   Overcast
8:15 AM 46.4 °F 41.1 °F 44.6 °F 93% 29.98 in 10.0 mi ESE 11.5 mph - N/A   Overcast
8:35 AM 46.4 °F 41.1 °F 44.6 °F 93% 29.98 in 10.0 mi ESE 11.5 mph - N/A   Overcast
8:55 AM 46.4 °F 41.1 °F 44.6 °F 93% 29.98 in 10.0 mi ESE 11.5 mph - N/A   Overcast
9:15 AM 48.2 °F - 46.4 °F 93% 29.99 in 10.0 mi ESE 11.5 mph - N/A   Overcast
9:35 AM 48.2 °F - 46.4 °F 93% 30.00 in 10.0 mi East 9.2 mph - N/A   Overcast
9:55 AM 50.0 °F - 46.4 °F 87% 30.01 in 10.0 mi ESE 11.5 mph - N/A   Mostly Cloudy
10:15 AM 51.8 °F - 48.2 °F 88% 30.01 in 10.0 mi ESE 12.7 mph - N/A   Scattered Clouds
10:35 AM 53.6 °F - 46.4 °F 77% 30.02 in 10.0 mi ESE 12.7 mph - N/A   Scattered Clouds
10:55 AM 53.6 °F - 48.2 °F 82% 30.02 in 10.0 mi East 12.7 mph - N/A   Scattered Clouds
11:15 AM 55.4 °F - 48.2 °F 77% 30.02 in 10.0 mi ESE 13.8 mph - N/A   Partly Cloudy
11:35 AM 55.4 °F - 46.4 °F 72% 30.03 in 10.0 mi SE 12.7 mph - N/A   Scattered Clouds
11:55 AM 57.2 °F - 48.2 °F 72% 30.03 in 10.0 mi ESE 10.4 mph - N/A   Overcast
12:15 PM 57.2 °F - 46.4 °F 67% 30.03 in 10.0 mi ESE 10.4 mph - N/A   Overcast
12:35 PM 57.2 °F - 48.2 °F 72% 30.03 in 10.0 mi SE 11.5 mph - N/A   Overcast
12:55 PM 57.2 °F - 46.4 °F 67% 30.03 in 10.0 mi SSE 9.2 mph - N/A   Mostly Cloudy
1:15 PM 57.2 °F - 46.4 °F 67% 30.04 in 10.0 mi South 6.9 mph - N/A   Mostly Cloudy
1:35 PM 57.2 °F - 46.4 °F 67% 30.04 in 10.0 mi SE 5.8 mph - N/A   Mostly Cloudy
1:55 PM 57.2 °F - 46.4 °F 67% 30.04 in 10.0 mi SE 5.8 mph - N/A   Overcast
2:15 PM 57.2 °F - 46.4 °F 67% 30.03 in 10.0 mi SE 5.8 mph - N/A   Mostly Cloudy
2:35 PM 57.2 °F - 48.2 °F 72% 30.03 in 10.0 mi SE 9.2 mph - N/A   Mostly Cloudy
2:55 PM 55.4 °F - 46.4 °F 72% 30.02 in 10.0 mi SE 8.1 mph - N/A   Overcast
3:15 PM 57.2 °F - 48.2 °F 72% 30.02 in 10.0 mi ESE 6.9 mph - N/A   Overcast
3:35 PM 55.4 °F - 48.2 °F 77% 30.02 in 10.0 mi ESE 9.2 mph - N/A   Overcast
3:55 PM 55.4 °F - 48.2 °F 77% 30.03 in 10.0 mi ESE 10.4 mph - N/A   Overcast
4:15 PM 55.4 °F - 48.2 °F 77% 30.02 in 10.0 mi ESE 9.2 mph - N/A   Overcast
4:35 PM 55.4 °F - 48.2 °F 77% 30.02 in 10.0 mi ESE 9.2 mph - N/A   Overcast
4:55 PM 55.4 °F - 48.2 °F 77% 30.02 in 10.0 mi ESE 10.4 mph - N/A   Unknown
5:15 PM 55.4 °F - 48.2 °F 77% 30.02 in 10.0 mi SE 8.1 mph - N/A   Mostly Cloudy
5:35 PM 55.4 °F - 46.4 °F 72% 30.02 in 10.0 mi SE 10.4 mph - N/A   Overcast
5:55 PM 55.4 °F - 46.4 °F 72% 30.02 in 10.0 mi ESE 9.2 mph - N/A   Overcast
6:15 PM 53.6 °F - 46.4 °F 77% 30.02 in 10.0 mi SE 9.2 mph - N/A   Overcast
6:35 PM 53.6 °F - 46.4 °F 77% 30.02 in 10.0 mi ESE 9.2 mph - N/A   Overcast
6:55 PM 53.6 °F - 46.4 °F 77% 30.02 in 10.0 mi ESE 10.4 mph - N/A   Overcast
7:15 PM 53.6 °F - 46.4 °F 77% 30.01 in 10.0 mi ESE 13.8 mph - N/A   Overcast
7:35 PM 53.6 °F - 46.4 °F 77% 30.01 in 10.0 mi ESE 13.8 mph - N/A   Overcast
7:55 PM 53.6 °F - 46.4 °F 77% 30.02 in 10.0 mi SE 10.4 mph - N/A   Overcast
8:15 PM 53.6 °F - 44.6 °F 72% 30.02 in 10.0 mi ESE 9.2 mph - N/A   Mostly Cloudy
8:35 PM 51.8 °F - 44.6 °F 76% 30.03 in 10.0 mi SE 12.7 mph - N/A   Mostly Cloudy
8:55 PM 53.6 °F - 44.6 °F 72% 30.04 in 10.0 mi ESE 12.7 mph - N/A   Mostly Cloudy
9:15 PM 53.6 °F - 44.6 °F 72% 30.04 in 10.0 mi ESE 12.7 mph - N/A   Overcast
9:35 PM 53.6 °F - 44.6 °F 72% 30.04 in 10.0 mi ESE 16.1 mph - N/A   Overcast
9:55 PM 53.6 °F - 46.4 °F 77% 30.04 in 10.0 mi SE 15.0 mph - N/A   Overcast
10:15 PM 51.8 °F - 46.4 °F 82% 30.05 in 10.0 mi SE 15.0 mph - N/A   Overcast
10:35 PM 51.8 °F - 46.4 °F 82% 30.05 in 10.0 mi ESE 15.0 mph - N/A   Overcast
10:55 PM 51.8 °F - 46.4 °F 82% 30.05 in 10.0 mi ESE 15.0 mph - N/A   Overcast
11:15 PM 51.8 °F - 46.4 °F 82% 30.04 in 10.0 mi ESE 16.1 mph - N/A   Overcast
11:35 PM 51.8 °F - 48.2 °F 88% 30.04 in 10.0 mi ESE 15.0 mph - N/A   Overcast
11:55 PM 51.8 °F - 48.2 °F 88% 30.04 in 10.0 mi ESE 15.0 mph - N/A   Overcast